TimeMST,TemperatureF,Dew PointF,Humidity,Sea Level PressureIn,VisibilityMPH,Wind Direction,Wind SpeedMPH,Gust SpeedMPH,PrecipitationIn,Events,Conditions,WindDirDegrees,DateUTC
12:53 AM,18.0,6.1,60,30.36,10.0,NW,12.7,-,N/A,,Clear,310,2013-03-05 07:53:00
1:53 AM,16.0,6.1,65,30.37,10.0,WNW,9.2,-,N/A,,Clear,300,2013-03-05 08:53:00
2:53 AM,14.0,6.1,71,30.36,10.0,WNW,9.2,-,N/A,,Clear,300,2013-03-05 09:53:00
3:53 AM,15.1,8.1,74,30.38,10.0,WNW,8.1,-,N/A,,Clear,290,2013-03-05 10:53:00
4:53 AM,14.0,8.1,77,30.41,10.0,WNW,4.6,-,N/A,,Clear,290,2013-03-05 11:53:00
5:53 AM,12.0,7.0,80,30.43,10.0,WNW,5.8,-,N/A,,Clear,300,2013-03-05 12:53:00
6:53 AM,14.0,8.1,77,30.44,10.0,WNW,3.5,-,N/A,,Clear,300,2013-03-05 13:53:00
7:53 AM,19.0,10.0,68,30.45,10.0,WNW,4.6,-,N/A,,Clear,300,2013-03-05 14:53:00
8:53 AM,23.0,10.0,58,30.45,10.0,WNW,9.2,-,N/A,,Clear,300,2013-03-05 15:53:00
9:53 AM,28.0,10.0,47,30.43,10.0,NW,8.1,-,N/A,,Clear,310,2013-03-05 16:53:00
10:53 AM,33.1,10.0,38,30.39,10.0,WNW,3.5,-,N/A,,Clear,290,2013-03-05 17:53:00
11:53 AM,37.0,10.0,33,30.36,10.0,Calm,Calm,-,N/A,,Clear,0,2013-03-05 18:53:00
12:53 PM,39.0,9.0,29,30.32,10.0,South,4.6,-,N/A,,Clear,170,2013-03-05 19:53:00
1:53 PM,39.9,9.0,28,30.30,10.0,SW,5.8,-,N/A,,Clear,230,2013-03-05 20:53:00
2:53 PM,43.0,8.1,24,30.28,10.0,Variable,4.6,-,N/A,,Clear,0,2013-03-05 21:53:00
3:53 PM,43.0,8.1,24,30.26,10.0,SE,8.1,-,N/A,,Clear,140,2013-03-05 22:53:00
4:53 PM,42.1,9.0,26,30.26,10.0,SE,10.4,-,N/A,,Clear,130,2013-03-05 23:53:00
5:53 PM,35.1,8.1,33,30.30,10.0,ESE,9.2,-,N/A,,Clear,120,2013-03-06 00:53:00
6:53 PM,33.1,9.0,37,30.28,10.0,SE,12.7,-,N/A,,Clear,130,2013-03-06 01:53:00
7:53 PM,28.0,8.1,43,30.29,10.0,ESE,10.4,-,N/A,,Clear,110,2013-03-06 02:53:00
8:53 PM,27.0,9.0,47,30.29,10.0,ESE,11.5,-,N/A,,Clear,110,2013-03-06 03:53:00
9:53 PM,24.1,10.0,55,30.27,10.0,ESE,11.5,-,N/A,,Clear,110,2013-03-06 04:53:00
10:53 PM,23.0,10.9,60,30.25,10.0,ESE,12.7,-,N/A,,Clear,120,2013-03-06 05:53:00
11:53 PM,23.0,10.9,60,30.22,10.0,ESE,15.0,-,N/A,,Clear,120,2013-03-06 06:53:00